Regional Weather Roundup
Issued by NWS

Home | Current Version | Previous Version | Graphics & Text | Print | Product List | Glossary On
Versions: 1 2 3 4 5 6 7 8 9 10 11 12 13 14 15 16 17 18 19 20 21 22 23 24 25 26 27 28 29 30 31 32 33 34 35 36 37 38 39 40 41 42 43 44 45 46 47 48 49 50
000
ASUS45 KSLC 122310
RWRUT

UTAH REGIONAL WEATHER ROUNDUP
NATIONAL WEATHER SERVICE SALT LAKE CITY UT
400 PM MST FRI FEB 12 2016

UTZ001>011-023>025-130000-

NORTHERN UTAH

CITY           SKY/WX    TMP DP  RH WIND       PRES   REMARKS
BRIGHAM CITY   CLOUDY    28  25  90 W3        30.38S
HILL AFB       MOSUNNY   31  30  96 W5        30.33F FOG     WCI  27
LOGAN          CLOUDY    24  23  96 N5        30.35S FOG     WCI  18
OGDEN          CLOUDY    28  26  92 NW5       30.34F FOG     WCI  23
PROVO AIRPORT  FOG       25  21  86 CALM      30.35S VSB 1/8
SALT LAKE CITY CLOUDY    34  27  75 N5        30.35F HAZE    WCI  30
VERNAL         CLOUDY    33  23  66 E6        30.34F HAZE    WCI  28
WENDOVER       CLOUDY    30  27  86 CALM      30.36F
HEBER CITY     SUNNY     41  21  45 CALM      30.28S
WEST JORDAN    SUNNY     32  28  86 NW3       30.34F

$$

UTZ012>022-026-027-130000-

SOUTHERN/CENTRAL UTAH

CITY           SKY/WX    TMP DP  RH WIND       PRES   REMARKS
BLANDING       SUNNY     48  27  43 CALM      30.41S
BRYCE CANYON   SUNNY     46  24  42 CALM      30.37F
CEDAR CITY     MOSUNNY   48  28  46 NE5       30.28S
DELTA          PTSUNNY   24  23  97 CALM      30.34S
HANKSVILLE     SUNNY     52  32  46 S3        30.35F
MILFORD        PTSUNNY   25  18  74 NE7       30.31S WCI  17
MOAB/CYNLANDS  SUNNY     46  32  58 NW5       30.33F
PRICE          SUNNY     46  26  45 CALM      30.35S
ST GEORGE      CLEAR     64  27  24 CALM      30.20F
KANAB          SUNNY     68  30  24 E8        30.29F

$$

REGIONAL REPORTS     COLORADO/ARIZONA

CITY           SKY/WX    TMP DP  RH WIND       PRES   REMARKS
CRAIG, CO      CLOUDY    32  25  75 SW3       30.33F
GRAND JUNCTION SUNNY     45  32  60 N5        30.33F
RIFLE          SUNNY     46  19  34 CALM      30.34S
MONTROSE       SUNNY     51  25  36 CALM      30.34F
CORTEZ         SUNNY     55  20  25 E5        30.34F
PAGE, AZ       SUNNY     57  32  38 NE3       30.29F
GRAND CANYON   SUNNY     67  12  12 CALM      30.32F
KINGMAN        SUNNY     75  23  14 N5        30.17F
FLAGSTAFF      SUNNY     62  14  15 CALM      30.34F

$$

REGIONAL REPORTS    NEVADA/IDAHO/WYOMING

CITY           SKY/WX    TMP DP  RH WIND       PRES   REMARKS
LAS VEGAS, NV  MOSUNNY   74  23  15 CALM      30.11F
ELY            PTSUNNY   39  26  59 SE3       30.29F
ELKO           PTSUNNY   37  23  56 E7        30.30F WCI  32
POCATELLO, ID  CLOUDY    41  30  65 NW6       30.28S
BURLEY         PTSUNNY   50  35  56 N8        30.22F
EVANSTON, WY   CLOUDY    45  18  34 S6        30.31F
ROCK SPRINGS   SUNNY     46  20  35 SW14      30.29S
KEMMERER       CLOUDY    45  16  31 CALM      30.31S

$$



USA.gov is the U.S. government's official web portal to all federal, state and local government web resources and services.